Weather observations for the past three days for
London, London-Corbin Airport-Magee Field
Metric (Imperial)
Date Time (edt) Wind (kph) Vis. (km) Weather Sky Cond. Temperature (ºC) Relative Humidity Wind Chill (°C) Heat Index (°C) Pressure Precipitation (cm)
Air Dwpt 6 hour altimeter (cm) sea level (mb) 1 hr 3 hr 6 hr
Max. Min.
25 00:53 SW 48 G 76 1.21 Thunderstorm Heavy Rain Fog/Mist and Windy SCT011 BKN017 OVC055 18.3 17.2 93% 76.07 1013.0 1.32
24 23:53 Calm 16.09 Thunderstorm in Vicinity SCT040 SCT050 BKN060 21.1 19.4 90% 75.97 1011.4
24 22:53 Calm 16.09 Fair CLR 21.7 19.4 87% 76.02 1012.3
24 21:53 Calm 16.09 Fair CLR 22.2 18.9 82% 76 1011.9
24 20:53 Calm 16.09 Fair CLR 23.9 19.4 76% 24 75.9 1010.8
24 19:53 Calm 16.09 Fair CLR 25 18.9 26.7 24.4 69% 26 75.9 1010.8
24 18:53 SW 11 16.09 Fair CLR 26.1 18.9 65% 27 75.9 1010.8
24 17:53 SW 11 16.09 A Few Clouds FEW040 26.7 18.3 60% 28 75.92 1010.9
24 16:53 SW 9 16.09 Fair CLR 26.1 17.2 58% 27 76 1011.9
24 15:53 W 7 16.09 Fair CLR 26.1 17.2 58% 27 76.07 1013.2
24 14:53 W 11 16.09 Fair CLR 25.6 17.2 60% 27 76.12 1013.9
24 13:53 SW 6 16.09 A Few Clouds FEW032 25 16.1 25 16.7 58% 26 76.15 1013.9
24 12:53 Vrbl 6 16.09 Fair CLR 23.9 17.2 66% 25 76.12 1013.9
24 11:53 Vrbl 9 16.09 Fair CLR 22.8 17.2 71% 76.2 1015.0
24 10:53 Calm 16.09 Partly Cloudy SCT013 21.1 17.2 79% 76.17 1014.7
24 09:53 SE 9 16.09 Overcast OVC008 19.4 16.7 84% 76.12 1014.0
24 08:53 Calm 16.09 Overcast OVC005 17.2 16.1 93% 76.2 1015.2
24 07:53 SE 6 16.09 Overcast OVC004 17.2 16.1 17.8 16.7 93% 76.2 1014.8
24 06:53 Calm 16.09 Overcast OVC004 17.2 16.1 93% 76.12 1013.9
24 05:53 Calm 16.09 Overcast OVC003 16.7 16.1 96% 76.1 1013.6
24 04:53 SW 6 16.09 Overcast OVC005 17.2 16.1 93% 76.1 1013.6
24 03:53 Calm 16.09 Overcast OVC005 17.2 16.7 97% 76.1 1013.3
24 02:53 NW 6 16.09 Overcast OVC004 17.8 16.7 93% 76.12 1013.8
24 01:53 N 7 16.09 Overcast OVC004 17.2 16.7 21.1 16.7 97% 76.12 1014.0 0.33
24 00:53 Calm 16.09 Mostly Cloudy BKN075 17.2 16.1 93% 76.12 1013.9
23 23:53 Calm 16.09 Overcast OVC095 17.2 16.7 97% 76.07 1013.4
23 22:53 S 6 16.09 Mostly Cloudy SCT085 BKN110 17.2 16.7 97% 76.12 1014.0 0.33
23 20:53 W 11 14.48 Light Rain FEW055 BKN095 OVC110 18.3 17.2 93% 76.17 1014.6 0.33
23 19:53 W 7 8.05 Light Rain Fog/Mist OVC100 21.1 19.4 25.6 20.6 90% 76.12 1014.0 0.08 0.08
23 18:53 S 9 16.09 A Few Clouds FEW110 22.2 18.3 79% 76.07 1013.2
23 16:53 SW 13 16.09 Fair CLR 23.9 18.3 71% 25 76.1 1013.5
23 14:53 S 17 G 31 16.09 Fair CLR 23.3 17.8 71% 76.17 1014.7
23 13:53 E 6 16.09 Fair CLR 20.6 17.8 20.6 16.7 84% 76.15 1014.5 0.81
23 12:53 SE 11 16.09 Mostly Cloudy SCT006 BKN031 BKN047 18.9 17.8 93% 76.2 1015.1 0.05
23 09:53 SE 9 9.66 Light Rain Fog/Mist OVC100 17.2 16.7 97% 76.3 1016.6 0.38
23 08:53 Calm 4.83 Thunderstorm in Vicinity Rain Fog/Mist FEW020 BKN070 OVC080 17.2 16.1 93% 76.35 1017.2 0.23
23 07:53 Calm 16.09 Mostly Cloudy BKN044 BKN110 16.7 16.1 16.7 15.6 96% 76.25 1015.6
23 06:53 Calm 16.09 Overcast BKN048 OVC060 16.7 15.6 93% 76.23 1015.4
23 05:53 Calm 14.48 Mostly Cloudy BKN050 15.6 15 96% 76.17 1014.8
23 04:53 Calm 14.48 Fair CLR 15.6 15.6 100% 76.23 1015.3
23 03:53 Calm 11.27 A Few Clouds FEW001 15.6 15 96% 76.2 1014.8
23 02:53 Calm 2.01 Fog/Mist SCT001 BKN049 15.6 15.6 100% 76.23 1015.4
23 01:53 Calm 1.61 Fog/Mist VV001 16.1 15.6 18.3 16.1 97% 76.25 1015.4 1.52
23 00:53 Calm 16.09 Fair CLR 16.7 16.1 96% 76.23 1015.1
22 23:53 S 6 16.09 Fair CLR 16.7 16.7 100% 76.2 1014.5
22 22:53 Calm 16.09 Light Rain OVC110 17.2 16.7 97% 76.3 1016.2 0.2 1.52
22 21:53 S 13 6.44 Rain Fog/Mist FEW007 BKN060 OVC070 17.2 16.7 97% 76.45 1018.2 0.74
22 20:53 Vrbl 7 6.44 Rain Fog/Mist BKN075 OVC085 17.8 16.7 93% 76.4 1017.7 0.58
22 19:53 SW 13 4.02 Thunderstorm Rain Fog/Mist SCT049 BKN070 OVC100 18.3 17.2 25.6 17.8 93% 76.38 1017.1 1.07 1.78
22 18:53 Vrbl 6 4.02 Thunderstorm Heavy Rain Fog/Mist SCT038 BKN049 OVC090 19.4 18.9 97% 76.17 1014.5 0.61
22 17:53 NW 13 16.09 Light Rain FEW090 BKN120 20.6 19.4 93% 76.17 1014.5 0.03
22 16:53 W 7 4.83 Light Rain SCT090 OVC110 21.7 18.9 84% 76.1 1013.4 0.08 0.08
22 15:53 E 6 16.09 Thunderstorm Light Rain BKN110 22.8 18.9 79% 76.07 1013.1
22 14:53 S 6 16.09 A Few Clouds FEW070 24.4 17.8 67% 25 76.15 1014.0
22 13:53 SW 9 16.09 Overcast OVC048 25.6 16.7 27.8 21.1 58% 26 76.2 1014.5
22 12:53 S 11 16.09 Fair CLR 26.1 16.7 56% 27 76.17 1014.2
22 11:53 SW 22 G 44 16.09 Fair CLR 27.2 16.1 51% 28 76.23 1015.0
22 10:53 S 15 G 33 16.09 Fair CLR 25.6 17.8 62% 27 76.23 1015.0
22 09:53 S 15 16.09 Fair CLR 23.9 17.8 69% 25 76.25 1015.4
22 08:53 S 15 16.09 Fair CLR 22.8 17.2 71% 76.25 1015.1
22 07:53 S 9 16.09 Fair CLR 21.1 16.7 21.7 18.9 76% 76.23 1015.0
22 06:53 SE 6 16.09 Fair CLR 19.4 16.7 84% 76.2 1014.7
22 05:53 S 7 16.09 Fair CLR 20.6 16.1 76% 76.15 1013.9
22 04:53 S 9 16.09 Fair CLR 20.6 16.7 78% 76.15 1013.9
22 03:53 S 6 16.09 Fair CLR 20 16.7 81% 76.15 1013.8
22 02:53 SW 6 16.09 Fair CLR 21.7 16.7 73% 76.17 1014.0
22 01:53 Calm 16.09 Fair CLR 20.6 17.2 27.8 20 81% 76.15 1013.9
Date Time (edt) Wind (kph) Vis. (km) Weather Sky Cond. Air Dwpt Max. Min. Relative Humidity Wind Chill (°C) Heat Index (°C) altimeter (cm) sea level (mb) 1 hr 3 hr 6 hr
6 hour
Temperature (ºC) Pressure Precipitation (cm)